| time (UTC) | temp F | wind direction | speed MPH | gust MPH | rain 1hr in | rain 24hr in | rain mn in | humidity % | barometer mb |
| 20260508082417 | 69 | 0.0 | 0.0 | 0.00 | 0.00 | 0.00 | 29 | 1015.7 | |
| 20260508081417 | 68 | 68 | 2.0 | 4.0 | 0.00 | 0.00 | 0.00 | 30 | 1015.4 |
| 20260508080417 | 68 | 0.0 | 0.0 | 0.00 | 0.00 | 0.00 | 31 | 1015.6 | |
| 20260508075417 | 68 | 0.0 | 1.0 | 0.00 | 0.00 | 0.00 | 30 | 1015.7 | |
| 20260508074437 | 68 | 0.0 | 0.0 | 0.00 | 0.00 | 0.00 | 30 | 1015.8 | |
| 20260508073417 | 68 | 158 | 2.0 | 2.0 | 0.00 | 0.00 | 0.00 | 30 | 1015.8 |
| 20260508072417 | 69 | 225 | 4.0 | 6.0 | 0.00 | 0.00 | 0.00 | 30 | 1015.9 |
| 20260508071417 | 69 | 135 | 4.0 | 7.0 | 0.00 | 0.00 | 0.00 | 30 | 1015.7 |
| 20260508070417 | 68 | 135 | 2.0 | 5.0 | 0.00 | 0.00 | 0.00 | 30 | 1015.7 |
| 20260508065417 | 69 | 158 | 2.0 | 4.0 | 0.00 | 0.00 | 0.00 | 28 | 1015.7 |
| 20260508064417 | 70 | 135 | 5.0 | 7.0 | 0.00 | 0.00 | 0.00 | 29 | 1016.5 |
| 20260508063437 | 70 | 113 | 4.0 | 6.0 | 0.00 | 0.00 | 0.00 | 28 | 1016.3 |
| 20260508062417 | 69 | 68 | 2.0 | 4.0 | 0.00 | 0.00 | 0.00 | 30 | 1016.1 |
| 20260508061417 | 69 | 158 | 5.0 | 9.0 | 0.00 | 0.00 | 0.00 | 30 | 1016.1 |
| 20260508060417 | 69 | 158 | 1.0 | 2.0 | 0.00 | 0.00 | 0.00 | 28 | 1015.9 |
| 20260508055415 | 69 | 158 | 3.0 | 4.0 | 0.00 | 0.00 | 0.00 | 29 | 1015.8 |
| 20260508054415 | 69 | 158 | 4.0 | 6.0 | 0.00 | 0.00 | 0.00 | 26 | 1015.6 |
| 20260508053415 | 70 | 135 | 3.0 | 4.0 | 0.00 | 0.00 | 0.00 | 21 | 1015.6 |
| 20260508052455 | 72 | 180 | 2.0 | 4.0 | 0.00 | 0.00 | 0.00 | 19 | 1015.9 |
| 20260508051415 | 71 | 135 | 3.0 | 5.0 | 0.00 | 0.00 | 0.00 | 18 | 1015.8 |
| 20260508050415 | 71 | 135 | 2.0 | 4.0 | 0.00 | 0.00 | 0.00 | 19 | 1015.8 |
| 20260508045415 | 71 | 135 | 4.0 | 5.0 | 0.00 | 0.00 | 0.00 | 19 | 1015.7 |
| 20260508044415 | 71 | 113 | 3.0 | 4.0 | 0.00 | 0.00 | 0.00 | 19 | 1015.0 |
| 20260508043415 | 70 | 0.0 | 0.0 | 0.00 | 0.00 | 0.00 | 19 | 1015.0 | |
| 20260508042415 | 70 | 0.0 | 0.0 | 0.00 | 0.00 | 0.00 | 20 | 1015.1 | |
| 20260508041415 | 70 | 0.0 | 0.0 | 0.00 | 0.00 | 0.00 | 20 | 1015.1 | |
| 20260508040415 | 71 | 0.0 | 0.0 | 0.00 | 0.00 | 0.00 | 19 | 1015.1 | |
| 20260508035415 | 71 | 0.0 | 0.0 | 0.00 | 0.00 | 0.00 | 19 | 1015.0 | |
| 20260508034415 | 71 | 0.0 | 0.0 | 0.00 | 0.00 | 0.00 | 18 | 1014.9 | |
| 20260508033415 | 71 | 0.0 | 0.0 | 0.00 | 0.00 | 0.00 | 18 | 1014.7 | |
| 20260508032417 | 71 | 0.0 | 0.0 | 0.00 | 0.00 | 0.00 | 18 | 1014.5 | |
| 20260508031417 | 71 | 0.0 | 0.0 | 0.00 | 0.00 | 0.00 | 18 | 1013.8 | |
| 20260508030437 | 72 | 0.0 | 0.0 | 0.00 | 0.00 | 0.00 | 19 | 1013.7 | |
| 20260508025417 | 72 | 0.0 | 0.0 | 0.00 | 0.00 | 0.00 | 18 | 1013.7 | |
| 20260508024417 | 72 | 0.0 | 0.0 | 0.00 | 0.00 | 0.00 | 17 | 1013.6 | |
| 20260508023417 | 73 | 0.0 | 0.0 | 0.00 | 0.00 | 0.00 | 17 | 1013.5 | |
| 20260508022417 | 74 | 0.0 | 0.0 | 0.00 | 0.00 | 0.00 | 17 | 1013.5 | |
| 20260508021417 | 74 | 0.0 | 0.0 | 0.00 | 0.00 | 0.00 | 16 | 1012.7 | |
| 20260508020417 | 75 | 0.0 | 0.0 | 0.00 | 0.00 | 0.00 | 16 | 1013.0 | |
| 20260508015417 | 76 | 0.0 | 1.0 | 0.00 | 0.00 | 0.00 | 15 | 1012.9 | |
| 20260508014417 | 76 | 0.0 | 0.0 | 0.00 | 0.00 | 0.00 | 16 | 1012.4 | |
| 20260508013417 | 77 | 0.0 | 0.0 | 0.00 | 0.00 | 0.00 | 15 | 1012.6 | |
| 20260508012437 | 78 | 0.0 | 0.0 | 0.00 | 0.00 | 0.00 | 15 | 1012.6 | |
| 20260508011417 | 79 | 135 | 3.0 | 5.0 | 0.00 | 0.00 | 0.00 | 14 | 1012.6 |
| 20260508010417 | 80 | 135 | 1.0 | 5.0 | 0.00 | 0.00 | 0.00 | 13 | 1012.8 |
| 20260508005418 | 81 | 0.0 | 1.0 | 0.00 | 0.00 | 0.00 | 13 | 1013.3 | |
| 20260508004417 | 79 | 0.0 | 0.0 | 0.00 | 0.00 | 0.00 | 13 | 1013.0 | |
| 20260508003417 | 80 | 113 | 1.0 | 4.0 | 0.00 | 0.00 | 0.00 | 13 | 1013.3 |
| 20260508002437 | 80 | 0.0 | 0.0 | 0.00 | 0.00 | 0.00 | 13 | 1013.3 | |
| 20260508001417 | 80 | 158 | 4.0 | 5.0 | 0.00 | 0.00 | 0.00 | 13 | 1013.4 |
| 20260508000419 | 81 | 225 | 6.0 | 7.0 | 0.00 | 0.00 | 0.00 | 13 | 1013.4 |
| 20260507235417 | 81 | 135 | 4.0 | 8.0 | 0.00 | 0.00 | 0.00 | 14 | 1013.5 |
| 20260507234417 | 80 | 0.0 | 3.0 | 0.00 | 0.00 | 0.00 | 14 | 1013.7 | |
| 20260507233417 | 81 | 270 | 1.0 | 3.0 | 0.00 | 0.00 | 0.00 | 13 | 1014.0 |
| 20260507232417 | 81 | 293 | 1.0 | 4.0 | 0.00 | 0.00 | 0.00 | 13 | 1014.1 |
| 20260507231457 | 81 | 293 | 4.0 | 7.0 | 0.00 | 0.00 | 0.00 | 13 | 1014.3 |
| 20260507230417 | 81 | 0.0 | 0.0 | 0.00 | 0.00 | 0.00 | 14 | 1014.3 | |
| 20260507225417 | 81 | 248 | 2.0 | 6.0 | 0.00 | 0.00 | 0.00 | 15 | 1014.4 |
| 20260507224417 | 81 | 0.0 | 0.0 | 0.00 | 0.00 | 0.00 | 15 | 1014.8 | |
| 20260507223417 | 80 | 0.0 | 0.0 | 0.00 | 0.00 | 0.00 | 15 | 1014.7 | |
| 20260507222417 | 80 | 158 | 7.0 | 10.0 | 0.00 | 0.00 | 0.00 | 15 | 1014.8 |
| 20260507221437 | 81 | 158 | 6.0 | 8.0 | 0.00 | 0.00 | 0.00 | 14 | 1014.8 |
| 20260507220415 | 80 | 0.0 | 0.0 | 0.00 | 0.00 | 0.00 | 14 | 1014.9 | |
| 20260507215417 | 80 | 180 | 3.0 | 5.0 | 0.00 | 0.00 | 0.00 | 15 | 1015.1 |
| 20260507214417 | 80 | 135 | 4.0 | 5.0 | 0.00 | 0.00 | 0.00 | 15 | 1015.4 |
| 20260507213417 | 80 | 135 | 6.0 | 10.0 | 0.00 | 0.00 | 0.00 | 15 | 1015.6 |
| 20260507212417 | 79 | 225 | 5.0 | 12.0 | 0.00 | 0.00 | 0.00 | 15 | 1015.4 |
| 20260507211417 | 80 | 0.0 | 1.0 | 0.00 | 0.00 | 0.00 | 15 | 1015.5 | |
| 20260507210417 | 79 | 135 | 6.0 | 7.0 | 0.00 | 0.00 | 0.00 | 15 | 1015.3 |
| 20260507205417 | 79 | 135 | 6.0 | 9.0 | 0.00 | 0.00 | 0.00 | 16 | 1015.5 |
| 20260507204417 | 79 | 113 | 4.0 | 7.0 | 0.00 | 0.00 | 0.00 | 17 | 1015.9 |
| 20260507203437 | 78 | 158 | 4.0 | 8.0 | 0.00 | 0.00 | 0.00 | 17 | 1015.7 |
| 20260507202417 | 78 | 135 | 6.0 | 9.0 | 0.00 | 0.00 | 0.00 | 17 | 1015.9 |
| 20260507201417 | 79 | 0.0 | 1.0 | 0.00 | 0.00 | 0.00 | 17 | 1016.7 | |
| 20260507200417 | 77 | 113 | 2.0 | 4.0 | 0.00 | 0.00 | 0.00 | 18 | 1016.6 |
| 20260507195417 | 77 | 135 | 5.0 | 7.0 | 0.00 | 0.00 | 0.00 | 18 | 1016.9 |
| 20260507194417 | 78 | 158 | 7.0 | 9.0 | 0.00 | 0.00 | 0.00 | 18 | 1017.3 |
| 20260507193417 | 76 | 113 | 3.0 | 5.0 | 0.00 | 0.00 | 0.00 | 20 | 1017.3 |
| 20260507192417 | 76 | 113 | 7.0 | 10.0 | 0.00 | 0.00 | 0.00 | 21 | 1017.4 |
| 20260507191417 | 76 | 158 | 8.0 | 10.0 | 0.00 | 0.00 | 0.00 | 20 | 1017.6 |
| 20260507190437 | 75 | 135 | 7.0 | 11.0 | 0.00 | 0.00 | 0.00 | 20 | 1017.4 |
| 20260507185417 | 75 | 158 | 7.0 | 10.0 | 0.00 | 0.00 | 0.00 | 20 | 1017.5 |
| 20260507184417 | 75 | 135 | 8.0 | 12.0 | 0.00 | 0.00 | 0.00 | 21 | 1017.9 |
| 20260507183417 | 76 | 90 | 6.0 | 8.0 | 0.00 | 0.00 | 0.00 | 22 | 1018.1 |
| 20260507182417 | 76 | 135 | 4.0 | 7.0 | 0.00 | 0.00 | 0.00 | 21 | 1018.2 |
| 20260507181417 | 76 | 0 | 2.0 | 5.0 | 0.00 | 0.00 | 0.00 | 22 | 1018.3 |
| 20260507180417 | 75 | 90 | 2.0 | 5.0 | 0.00 | 0.00 | 0.00 | 20 | 1018.3 |
| 20260507175417 | 73 | 90 | 3.0 | 6.0 | 0.00 | 0.00 | 0.00 | 23 | 1018.2 |
| 20260507174437 | 74 | 0.0 | 4.0 | 0.00 | 0.00 | 0.00 | 23 | 1018.7 | |
| 20260507173417 | 73 | 158 | 3.0 | 4.0 | 0.00 | 0.00 | 0.00 | 24 | 1018.8 |
| 20260507172417 | 71 | 135 | 6.0 | 12.0 | 0.00 | 0.00 | 0.00 | 23 | 1018.6 |
| 20260507171437 | 71 | 113 | 6.0 | 10.0 | 0.00 | 0.00 | 0.00 | 23 | 1018.6 |
| 20260507170437 | 72 | 113 | 3.0 | 5.0 | 0.00 | 0.00 | 0.00 | 23 | 1018.8 |
| 20260507165417 | 71 | 90 | 3.0 | 6.0 | 0.00 | 0.00 | 0.00 | 23 | 1018.9 |
| 20260507164417 | 71 | 113 | 1.0 | 2.0 | 0.00 | 0.00 | 0.00 | 23 | 1019.0 |
| 20260507163417 | 70 | 90 | 5.0 | 8.0 | 0.00 | 0.00 | 0.00 | 25 | 1018.8 |
| 20260507162417 | 69 | 90 | 4.0 | 6.0 | 0.00 | 0.00 | 0.00 | 26 | 1019.0 |
| 20260507161417 | 68 | 158 | 4.0 | 7.0 | 0.00 | 0.00 | 0.00 | 26 | 1019.1 |
| 20260507160517 | 68 | 135 | 3.0 | 6.0 | 0.00 | 0.00 | 0.00 | 26 | 1019.1 |
| 20260507155417 | 68 | 113 | 4.0 | 7.0 | 0.00 | 0.00 | 0.00 | 26 | 1019.2 |
| 20260507154417 | 68 | 135 | 4.0 | 6.0 | 0.00 | 0.00 | 0.00 | 26 | 1019.2 |
| 20260507153437 | 67 | 0.0 | 0.0 | 0.00 | 0.00 | 0.00 | 25 | 1019.2 | |
| 20260507152417 | 67 | 0.0 | 1.0 | 0.00 | 0.00 | 0.00 | 25 | 1019.3 | |
| 20260507151417 | 66 | 0.0 | 0.0 | 0.00 | 0.00 | 0.00 | 26 | 1019.3 | |
| 20260507150417 | 64 | 0.0 | 0.0 | 0.00 | 0.00 | 0.00 | 28 | 1018.7 | |
| 20260507145417 | 63 | 315 | 2.0 | 4.0 | 0.00 | 0.00 | 0.00 | 27 | 1018.8 |
| 20260507144417 | 63 | 0.0 | 0.0 | 0.00 | 0.00 | 0.00 | 26 | 1019.1 | |
| 20260507143417 | 62 | 0.0 | 0.0 | 0.00 | 0.00 | 0.00 | 25 | 1019.0 | |
| 20260507142417 | 63 | 0.0 | 2.0 | 0.00 | 0.00 | 0.00 | 25 | 1019.1 | |
| 20260507141417 | 62 | 0.0 | 0.0 | 0.00 | 0.00 | 0.00 | 26 | 1019.4 | |
| 20260507140417 | 61 | 0.0 | 1.0 | 0.00 | 0.00 | 0.00 | 27 | 1019.0 | |
| 20260507135437 | 59 | 0.0 | 0.0 | 0.00 | 0.00 | 0.00 | 27 | 1018.8 | |
| 20260507134437 | 60 | 0.0 | 0.0 | 0.00 | 0.00 | 0.00 | 27 | 1019.2 | |
| 20260507133417 | 57 | 0.0 | 0.0 | 0.00 | 0.00 | 0.00 | 28 | 1018.8 | |
| 20260507132417 | 56 | 0.0 | 0.0 | 0.00 | 0.00 | 0.00 | 28 | 1018.4 | |
| 20260507131417 | 54 | 0.0 | 0.0 | 0.00 | 0.00 | 0.00 | 30 | 1018.3 | |
| 20260507130457 | 55 | 0.0 | 0.0 | 0.00 | 0.00 | 0.00 | 28 | 1018.3 | |
| 20260507125417 | 55 | 0.0 | 0.0 | 0.00 | 0.00 | 0.00 | 27 | 1018.1 | |
| 20260507124417 | 56 | 0.0 | 0.0 | 0.00 | 0.00 | 0.00 | 27 | 1018.2 | |
| 20260507123418 | 56 | 0.0 | 0.0 | 0.00 | 0.00 | 0.00 | 25 | 1018.0 | |
| 20260507122417 | 56 | 0.0 | 0.0 | 0.00 | 0.00 | 0.00 | 25 | 1018.1 | |
| 20260507121417 | 57 | 113 | 1.0 | 2.0 | 0.00 | 0.00 | 0.00 | 24 | 1018.2 |
| 20260507120417 | 57 | 135 | 3.0 | 4.0 | 0.00 | 0.00 | 0.00 | 25 | 1018.1 |
| 20260507115417 | 57 | 135 | 1.0 | 3.0 | 0.00 | 0.00 | 0.00 | 25 | 1018.0 |
| 20260507114417 | 57 | 158 | 1.0 | 2.0 | 0.00 | 0.00 | 0.00 | 24 | 1017.9 |
| 20260507113417 | 57 | 0.0 | 0.0 | 0.00 | 0.00 | 0.00 | 25 | 1017.5 | |
| 20260507112457 | 57 | 90 | 2.0 | 3.0 | 0.00 | 0.00 | 0.00 | 25 | 1017.9 |
| 20260507111417 | 56 | 0.0 | 0.0 | 0.00 | 0.00 | 0.00 | 25 | 1017.7 | |
| 20260507110417 | 57 | 0.0 | 0.0 | 0.00 | 0.00 | 0.00 | 24 | 1017.7 | |
| 20260507105417 | 58 | 0.0 | 0.0 | 0.00 | 0.00 | 0.00 | 23 | 1018.0 | |
| 20260507104417 | 58 | 338 | 1.0 | 2.0 | 0.00 | 0.00 | 0.00 | 23 | 1017.7 |
| 20260507103437 | 59 | 68 | 1.0 | 2.0 | 0.00 | 0.00 | 0.00 | 22 | 1018.0 |
| 20260507102417 | 59 | 0.0 | 0.0 | 0.00 | 0.00 | 0.00 | 22 | 1018.0 | |
| 20260507101417 | 58 | 0.0 | 0.0 | 0.00 | 0.00 | 0.00 | 22 | 1017.7 | |
| 20260507100437 | 57 | 203 | 1.0 | 2.0 | 0.00 | 0.00 | 0.00 | 26 | 1017.4 |
| 20260507095457 | 58 | 0.0 | 0.0 | 0.00 | 0.00 | 0.00 | 24 | 1017.4 | |
| 20260507094417 | 59 | 0.0 | 0.0 | 0.00 | 0.00 | 0.00 | 24 | 1017.8 | |
| 20260507093417 | 59 | 68 | 2.0 | 3.0 | 0.00 | 0.00 | 0.00 | 23 | 1017.6 |
| 20260507092417 | 60 | 0.0 | 0.0 | 0.00 | 0.00 | 0.00 | 22 | 1017.7 | |
| 20260507091416 | 58 | 0.0 | 0.0 | 0.00 | 0.00 | 0.00 | 24 | 1017.5 | |
| 20260507090417 | 57 | 0.0 | 0.0 | 0.00 | 0.00 | 0.00 | 24 | 1017.4 | |
| 20260507085417 | 58 | 0.0 | 0.0 | 0.00 | 0.00 | 0.00 | 23 | 1017.5 | |
| 20260507084417 | 59 | 0.0 | 0.0 | 0.00 | 0.00 | 0.00 | 22 | 1017.5 | |
| 20260507083436 | 59 | 0.0 | 0.0 | 0.00 | 0.00 | 0.00 | 22 | 1017.5 |